[[{"header":{"parameterUnit":"m.s-1","parameterCategory":1,"la1":30.2991,"la2":30.254,"lo1":-89.0895,"lo2":-89.0444,"dy":0.0017,"dx":0.0017,"nx":28,"ny":28,"refTime":"2023-10-23T09:00:00:Z","depth":0,"parameterNumber":2,"parameterNumberName":"U-component_of_WINDS"},"data":[0,0,0,0,0,0,0,0,0,0,0,0,0,0,0,0,0,0,0,0,0,0,0,0,0,0,0,0,0,0,0,0,0,0,0,0,0,0,0,0,0,0,0,0,0,0,0,0,0,0,0,0,0,0,0,0,0,0,-4.2514,-4.2514,0,-4.2573,-4.2574,-4.2575,-4.2519,-4.2516,-4.2514,-4.2512,-4.257,-4.2574,-4.2578,0,0,0,0,0,0,0,0,0,0,0,0,0,-4.2353,-4.2357,-4.2514,-4.2514,-4.2515,-4.2573,-4.2574,-4.2575,-4.2519,-4.2516,-4.2513,-4.2511,-4.2569,-4.2574,-4.2578,0,0,0,0,0,0,0,0,0,0,0,0,0,-4.2419,-4.2358,-4.2514,-4.2494,-4.2493,-4.2573,-4.2574,-4.2575,-4.2519,-4.2516,-4.2513,-4.251,-4.2568,-4.2573,-4.2579,-4.2679,0,0,-4.2595,-4.2598,0,0,0,0,0,0,0,0,-4.2415,-4.2425,-4.2496,-4.2496,-4.2495,-4.2535,-4.2539,-4.261,-4.252,-4.2509,-4.2512,-4.2508,-4.2561,-4.2567,-4.2585,-4.2682,-4.2685,-4.2596,-4.2599,-4.2601,-4.2603,0,0,0,0,0,0,0,-4.2411,-4.2422,-4.2537,-4.2498,-4.2497,-4.2483,-4.2489,-4.2552,-4.2553,-4.251,-4.2506,-4.2514,-4.256,-4.258,-4.2586,-4.2685,-4.2596,-4.26,-4.2604,-4.2606,-4.2873,-4.2877,0,0,0,0,0,0,-4.2408,-4.2419,-4.2535,-4.2539,-4.2446,-4.2489,-4.2495,-4.2525,-4.2553,-4.2553,-4.2517,-4.2511,-4.2573,-4.258,-4.2588,-4.271,-4.2601,-4.2606,-4.261,-4.2869,-4.2874,-4.2878,0,0,0,0,0,0,-4.2405,-4.2419,-4.2533,-4.2478,-4.2491,-4.2495,-4.253,-4.2528,-4.2548,-4.2558,-4.2558,-4.2537,-4.257,-4.2581,-4.2658,-4.2711,-4.2609,-4.2614,-4.2865,-4.2871,-4.2876,-4.2954,0,0,0,0,0,0,-4.2401,-4.2418,-4.2456,-4.2479,-4.2494,-4.2601,-4.2533,-4.2532,-4.2558,-4.2552,-4.2577,-4.2578,-4.2568,-4.2651,-4.2664,-4.2717,-4.2618,-4.286,-4.2867,-4.2874,-4.2946,-4.2961,-4.2974,0,0,0,0,0,-4.2395,-4.2474,-4.2458,-4.2472,-4.2541,-4.2604,-4.2613,-4.2602,-4.2563,-4.2601,-4.2608,-4.2577,-4.2704,-4.2659,-4.2673,-4.2729,-4.2856,-4.2865,-4.2873,-4.294,-4.2958,-4.2974,0,0,0,0,0,0,-4.2454,-4.2476,-4.2459,-4.2547,-4.2575,-4.2595,-4.2642,-4.2621,-4.2659,-4.2651,-4.2635,-4.2641,-4.2724,-4.2734,-4.2684,-4.2831,-4.2774,-4.2786,-4.282,-4.2837,-4.2851,-4.2845,-4.2623,0,0,0,0,0,-4.2478,-4.2527,-4.2544,-4.262,-4.2636,-4.2637,-4.2664,-4.2654,-4.2681,-4.2692,-4.2704,-4.2731,-4.2778,-4.2809,-4.2852,-4.2949,-4.2955,-4.2995,-4.3009,-4.302,-4.303,-4.3086,-4.3104,-4.2906,-4.2906,-4.2906,0,0,-4.2526,-4.2544,-4.2576,-4.2633,-4.2653,-4.2705,-4.2647,-4.2703,-4.2742,-4.27,-4.2774,-4.2786,-4.2816,-4.2905,-4.2944,-4.2916,-4.3087,-4.3031,-4.304,-4.3044,-4.3097,-4.3115,-4.3132,-4.2912,-4.2911,-4.291,0,0,-4.264,-4.2659,-4.2726,-4.2749,-4.2782,-4.2783,-4.28,-4.2825,-4.2831,-4.2907,-4.2877,-4.2924,-4.3004,-4.3028,-4.305,-4.3182,-4.3155,-4.3197,-4.3268,-4.3323,-4.3338,-4.3352,-4.34,-4.3418,-4.3207,-4.3207,-4.3207,0,-4.2695,-4.2773,-4.2763,-4.2824,-4.2851,-4.2819,-4.2888,-4.291,-4.2954,-4.2974,-4.2943,-4.3046,-4.3064,-4.3159,-4.3192,-4.3212,-4.3231,-4.3192,-4.3337,-4.3351,-4.3364,-4.3409,-4.3427,-4.3212,-4.3212,-4.3211,-4.3211,0,-4.2841,-4.2896,-4.2946,-4.2993,-4.3026,-4.309,-4.3092,-4.3127,-4.3116,-4.3122,-4.3201,-4.3223,-4.3271,-4.3294,-4.3282,-4.339,-4.3372,-4.3339,-4.3282,-4.3387,-4.343,-4.3447,-4.3219,-4.3217,-4.3216,-4.3215,0,0,-4.2987,-4.3033,-4.3051,-4.3074,-4.3111,-4.3153,-4.3219,-4.3268,-4.3299,-4.3333,-4.3388,-4.346,-4.3432,-4.3458,-4.345,-4.3498,-4.3604,-4.346,-4.3461,-4.3486,-4.3726,-4.3749,-4.3769,-4.3588,-4.3592,-4.3594,-4.3724,0,-4.3103,-4.3216,-4.3213,-4.3318,-4.337,-4.3344,-4.3402,-4.3431,-4.344,-4.3487,-4.3496,-4.3548,-4.3507,-4.3523,-4.357,-4.3581,-4.3651,-4.3572,-4.3639,-4.3642,-4.363,-4.3791,-4.3814,-4.3935,-4.374,-4.3743,-4.3745,0,-4.3251,-4.3294,-4.3405,-4.3439,-4.3461,-4.3512,-4.356,-4.3605,-4.364,-4.3643,-4.3676,-4.3662,-4.373,-4.3674,-4.3768,-4.3715,-4.3743,-4.3754,-4.3758,-4.3762,-4.3698,-4.3799,-4.3973,-4.3991,-4.3771,-4.3769,-4.3767,0,-4.3348,-4.3433,-4.3511,-4.3532,-4.3573,-4.361,-4.3629,-4.3661,-4.3693,-4.3735,-4.3756,-4.3806,-4.3833,-4.3873,-4.3873,-4.3832,-4.397,-4.3913,-4.3975,-4.3975,-4.4002,-4.4,-4.4182,-4.4024,-4.4023,-4.4023,-4.4023,0,-4.3476,-4.3545,-4.3556,-4.3604,-4.3682,-4.3679,-4.3757,-4.3773,-4.3803,-4.3854,-4.3836,-4.3885,-4.3884,-4.3935,-4.3936,-4.4016,-4.4028,-4.4033,-4.4032,-4.4034,-4.4033,-4.405,-4.4041,-4.4028,-4.4027,-4.4026,-4.4025,0,-4.3594,-4.3604,-4.3688,-4.3723,-4.3734,-4.379,-4.382,-4.3867,-4.3877,-4.3943,-4.3959,-4.3974,-4.4034,-4.404,-4.4108,-4.411,-4.4206,-4.4196,-4.4194,-4.4192,-4.4254,-4.4248,-4.4452,-4.4479,-4.4304,-4.4305,-4.4307,0,-4.3674,-4.3728,-4.377,-4.3804,-4.3826,-4.3881,-4.3915,-4.3917,-4.3953,-4.4001,-4.4043,-4.4101,-4.4147,-4.4244,-4.4262,-4.4315,-4.4307,-4.4375,-4.4314,-4.4316,-4.4308,-4.4304,-4.431,-4.4385,-4.4387,-4.4389,-4.439,0,-4.3816,-4.382,-4.3869,-4.3923,-4.3965,-4.4006,-4.4045,-4.4075,-4.4082,-4.4124,-4.4186,-4.4223,-4.4296,-4.4354,-4.4408,-4.4429,-4.4411,-4.441,-4.4427,-4.4428,-4.4425,-4.4428,-4.4225,-4.4404,-4.4403,-4.4402,-4.4401,-4.44,-4.3917,-4.3965,-4.4003,-4.4061,-4.4092,-4.413,-4.4177,-4.4196,-4.4248,-4.4308,-4.4307,-4.4375,-4.4414,-4.4486,-4.4511,-4.4566,-4.4543,-4.4568,-4.4574,-4.4579,-4.4586,-4.4419,-4.4576,-4.4575,-4.4575,-4.4575,-4.4574,0,-4.4057,-4.4082,-4.4136,-4.4193,-4.424,-4.4223,-4.4268,-4.4307,-4.4368,-4.4407,-4.4455,-4.4528,-4.4587,-4.4613,-4.4671,-4.471,-4.4704,-4.4725,-4.4721,-4.4727,-4.4602,-4.4582,-4.4729,-4.4729,-4.4729,-4.4729,-4.4729,-4.4729,-4.4135,-4.4216,-4.4225,-4.4323,-4.4348,-4.4416,-4.4443,-4.448,-4.4511,-4.4595,-4.4645,-4.4662,-4.4696,-4.4758,-4.4812,-4.4818,-4.484,-4.4865,-4.4868,-4.4751,-4.4735,-4.472,-4.47,-4.487,-4.487,-4.4987,-4.4988,-4.4989]},{"header":{"parameterUnit":"m.s-1","parameterCategory":1,"la1":30.2991,"la2":30.254,"lo1":-89.0895,"lo2":-89.0444,"dy":0.0017,"dx":0.0017,"nx":28,"ny":28,"refTime":"2023-10-23T09:00:00:Z","depth":0,"parameterNumber":3,"parameterNumberName":"V-component_of_WINDS"},"data":[0,0,0,0,0,0,0,0,0,0,0,0,0,0,0,0,0,0,0,0,0,0,0,0,0,0,0,0,0,0,0,0,0,0,0,0,0,0,0,0,0,0,0,0,0,0,0,0,0,0,0,0,0,0,0,0,0,0,1.0194,1.0193,0,1.0136,1.0135,1.0134,1.0077,1.0076,1.0075,1.0075,1.0013,1.0012,1.0012,0,0,0,0,0,0,0,0,0,0,0,0,0,1.0257,1.0256,1.0194,1.0193,1.0192,1.0136,1.0135,1.0134,1.0077,1.0076,1.0075,1.0074,1.0014,1.0013,1.0011,0,0,0,0,0,0,0,0,0,0,0,0,0,1.0217,1.0256,1.0194,1.0157,1.0153,1.0136,1.0135,1.0134,1.0077,1.0076,1.0075,1.0074,1.0014,1.0013,1.0011,1.0025,0,0,1.0007,1.0006,0,0,0,0,0,0,0,0,1.022,1.0215,1.0163,1.016,1.0155,1.0113,1.0135,1.0097,1.0078,1.0106,1.0075,1.0073,1.0047,1.0043,1.0034,1.0022,1.002,1.0007,1.0006,1.0005,1.0005,0,0,0,0,0,0,0,1.0222,1.0217,1.0171,1.0163,1.0158,1.0144,1.0137,1.0127,1.0084,1.0103,1.0099,1.0093,1.0045,1.0036,1.0033,1.0019,1.0007,1.0006,1.0005,1.0004,1.0019,1.0021,0,0,0,0,0,0,1.0231,1.022,1.0173,1.0169,1.0185,1.0144,1.0136,1.0127,1.0084,1.0076,1.0094,1.0091,1.0039,1.0034,1.003,1.0046,1.0005,1.0004,1.0003,1.0018,1.002,1.0021,0,0,0,0,0,0,1.0232,1.0227,1.0175,1.0193,1.0186,1.0144,1.0135,1.0127,1.0118,1.0077,1.0068,1.0093,1.0038,1.0032,1.0028,1.0043,1.0004,1.0002,1.0017,1.0019,1.002,1.0076,0,0,0,0,0,0,1.0234,1.0228,1.0232,1.0194,1.0185,1.0173,1.0135,1.0126,1.0116,1.0111,1.0073,1.0066,1.0037,1.003,1.0027,1.004,1.0001,1.0015,1.0018,1.002,1.0072,1.0079,1.0085,0,0,0,0,0,1.0237,1.0249,1.0233,1.0227,1.0189,1.0174,1.0169,1.0135,1.0117,1.0122,1.0096,1.0067,1.0042,1.003,1.0026,1.0039,1.0014,1.0017,1.002,1.007,1.0078,1.0085,0,0,0,0,0,0,1.0288,1.0243,1.0224,1.0224,1.0204,1.0164,1.0168,1.0145,1.0128,1.0124,1.0082,1.0074,1.0076,1.0057,1.0044,1.0052,1.0024,1.0026,1.0064,1.0072,1.0078,1.0082,1.0,0,0,0,0,0,1.0299,1.0291,1.0252,1.0256,1.0247,1.021,1.0202,1.0178,1.0155,1.0146,1.0119,1.0098,1.0085,1.0077,1.0063,1.007,1.0063,1.0078,1.0084,1.009,1.0091,1.0097,1.0104,1.003,1.003,1.003,0,0,1.0322,1.0297,1.0293,1.0266,1.0247,1.024,1.0203,1.0196,1.0191,1.0144,1.0139,1.012,1.0093,1.0096,1.0095,1.008,1.0111,1.0093,1.0098,1.0097,1.0101,1.0108,1.0114,1.0032,1.0032,1.0032,0,0,1.0361,1.034,1.0342,1.0326,1.0299,1.0275,1.0276,1.0241,1.0227,1.0222,1.0188,1.0182,1.016,1.0144,1.0133,1.0171,1.0145,1.0168,1.0201,1.0207,1.0212,1.0217,1.0233,1.0239,1.017,1.017,1.017,0,1.0392,1.038,1.0346,1.0343,1.0333,1.0293,1.0296,1.0281,1.0251,1.0245,1.0229,1.0205,1.0183,1.0183,1.0193,1.0185,1.0186,1.0171,1.0215,1.0219,1.0223,1.0237,1.0243,1.0173,1.0173,1.0173,1.0172,0,1.0422,1.0414,1.042,1.0394,1.0384,1.0384,1.0351,1.0346,1.0325,1.0303,1.03,1.0275,1.0257,1.0255,1.0232,1.0252,1.0244,1.0222,1.0193,1.0234,1.0247,1.0252,1.0178,1.0177,1.0176,1.0175,0,0,1.0486,1.0446,1.0448,1.0437,1.0407,1.0401,1.0401,1.0385,1.0382,1.0364,1.0363,1.0349,1.033,1.0317,1.0293,1.0299,1.0334,1.0276,1.0275,1.0289,1.0357,1.0374,1.038,1.0317,1.0318,1.0319,1.0359,0,1.052,1.0517,1.0489,1.0494,1.0488,1.0453,1.0453,1.0436,1.0417,1.041,1.0389,1.038,1.0354,1.0347,1.0351,1.0329,1.0347,1.0325,1.0317,1.0317,1.0324,1.0386,1.0403,1.0442,1.0364,1.0365,1.0365,0,1.0558,1.0545,1.055,1.0524,1.052,1.0521,1.0506,1.0499,1.048,1.0466,1.0455,1.043,1.0429,1.0403,1.0403,1.0389,1.0385,1.0374,1.0375,1.0372,1.0343,1.0386,1.0454,1.046,1.0372,1.0372,1.0371,0,1.0606,1.059,1.0592,1.0584,1.0553,1.0554,1.0542,1.0521,1.0515,1.0502,1.0498,1.0485,1.0478,1.0469,1.0442,1.0425,1.0446,1.0416,1.0435,1.0436,1.0439,1.0439,1.0508,1.0437,1.0437,1.0437,1.0437,0,1.0647,1.0651,1.0614,1.0615,1.062,1.0589,1.0596,1.058,1.0563,1.0561,1.053,1.053,1.0494,1.0489,1.0468,1.0473,1.0469,1.0459,1.0453,1.0462,1.0463,1.0457,1.0454,1.0438,1.0438,1.0438,1.0437,0,1.0701,1.0675,1.0676,1.0648,1.0641,1.0647,1.0623,1.0624,1.0606,1.0604,1.0602,1.0572,1.0566,1.0539,1.0526,1.0512,1.0524,1.0512,1.053,1.0527,1.0547,1.0546,1.0614,1.0622,1.0546,1.0547,1.0547,0,1.0728,1.0731,1.0705,1.0703,1.0692,1.0687,1.0682,1.0653,1.0648,1.0629,1.0633,1.0625,1.0617,1.0609,1.0587,1.0577,1.0566,1.0591,1.0564,1.0574,1.0567,1.0568,1.0569,1.0596,1.0597,1.0598,1.0598,0,1.0779,1.0768,1.076,1.0751,1.0746,1.0736,1.0724,1.0724,1.0692,1.0689,1.0684,1.0678,1.0667,1.066,1.0648,1.0635,1.0612,1.0608,1.0611,1.062,1.0631,1.0626,1.0546,1.0605,1.0605,1.0604,1.0604,1.0603,1.082,1.0823,1.0807,1.0801,1.0791,1.0782,1.0782,1.0765,1.076,1.075,1.0733,1.0731,1.0715,1.0697,1.0687,1.0686,1.0672,1.0677,1.0679,1.068,1.0686,1.0632,1.0683,1.0683,1.0683,1.0682,1.0682,0,1.0871,1.086,1.0856,1.0842,1.0839,1.082,1.0807,1.0806,1.0804,1.0792,1.0786,1.0782,1.0776,1.0755,1.0748,1.0751,1.0741,1.075,1.0749,1.0747,1.0697,1.0695,1.0759,1.0759,1.0759,1.0759,1.0759,1.0759,1.0897,1.0902,1.0889,1.089,1.0878,1.0876,1.0872,1.0864,1.0855,1.0852,1.0848,1.0835,1.082,1.0812,1.0807,1.0801,1.08,1.0814,1.0805,1.0758,1.075,1.0743,1.0741,1.0814,1.0814,1.0855,1.0855,1.0856]}]]